Temperature
16 16 15 15 15 15 15 15 15 15 15 15 15 15 15 15 15 15 15 15 15 15 15 15 15 15 15 15 15 15 15 14 14 14 14 14 14 14 14 14 14 14 14
16 15 15 15 15 15 15 15 15 15 15 15 15 15 15 15 15 15 15 15 15 15 15 15 15 14 14 14 14 14 14 14 14 14 14 14 14 14 14 14 14 14 14
16 15 15 15 15 15 15 15 15 15 15 15 15 14 14 14 14 14 14 14 14 14 14 14 14 14 14 14 14 14 14 14 14 14 14 14 14 13 13 13 13 13 13
15 15 15 15 15 15 15 15 15 15 15 14 14 14 14 14 14 14 14 14 14 14 14 14 14 14 14 14 14 14 14 13 13 13 13 13 13 13 13 13 13 13 13
15 15 15 15 15 15 15 15 15 15 14 14 14 14 14 14 14 14 14 14 14 14 14 14 14 14 14 14 13 13 13 13 13 13 13 13 13 13 13 13 13 13 13
15 15 15 15 15 15 15 15 15 14 14 14 14 14 13 13 13 13 13 13 13 13 13 13 13 14 14 13 13 13 13 13 13 13 13 13 13 13 12 12 12 12 12
15 15 15 15 15 15 14 14 14 14 14 14 14 13 13 13 13 13 13 13 13 13 13 13 13 13 13 13 13 13 13 13 13 13 12 12 12 12 12 12 12 12 12
15 15 14 14 14 14 14 14 14 14 14 14 14 13 13 13 13 13 13 13 13 13 13 13 13 13 13 13 13 13 12 12 12 12 12 12 12 12 12 12 12 12 12
15 14 14 14 14 14 14 14 14 14 14 14 13 13 13 13 12 12 12 12 13 13 13 13 13 13 13 13 13 12 12 12 12 12 12 12 12 12 11 11 11 11 11
14 14 14 14 14 14 14 14 14 14 14 14 13 13 13 13 13 12 12 12 12 12 12 12 12 12 12 12 12 12 12 12 12 12 12 11 11 11 11 11 11 11 11
14 14 14 14 14 14 14 14 14 13 13 13 13 13 13 13 13 12 12 12 12 12 12 12 12 12 12 12 12 12 12 12 12 12 11 11 11 11 11 11 11 11 10
14 14 14 14 14 14 14 14 13 13 13 13 13 13 13 13 13 13 12 12 12 12 12 12 12 11 11 12 11 11 12 12 11 11 11 11 11 11 11 10 10 10 10
14 14 14 14 14 14 14 13 13 13 13 13 13 13 13 13 13 13 13 12 12 11 11 11 11 11 11 11 11 11 11 11 11 11 11 11 11 11 10 10 10 10 10
14 14 14 14 14 14 13 13 13 13 13 13 13 13 13 13 13 13 13 12 12 12 11 11 11 11 11 11 11 11 11 11 11 11 11 11 11 11 10 10 10 10 10
14 14 14 14 14 13 14 13 13 13 13 13 13 13 13 13 13 13 12 12 12 12 11 11 11 11 11 11 11 11 11 11 11 11 10 10 11 10 10 10 10 10 10
14 14 14 14 14 14 13 13 13 13 13 13 13 13 13 13 13 12 12 12 12 12 12 11 11 11 11 11 11 11 11 10 10 10 10 10 10 10 10 10 10 10 10
14 14 14 14 14 13 13 13 13 13 13 13 13 13 13 12 12 12 12 12 12 12 12 11 11 11 11 11 11 10 10 10 10 10 10 10 10 10 10 10 10 10 10
14 14 14 14 13 13 13 13 13 13 13 13 13 13 13 12 12 12 12 12 12 12 12 11 11 11 11 10 10 10 10 10 10 10 10 10 10 10 10 10 10 10 10
14 14 14 14 13 13 13 13 13 13 13 12 12 12 12 12 12 12 12 12 12 12 11 11 11 11 11 10 10 10 10 10 10 10 10 10 10 10 10 10 9 9 9
14 14 14 14 13 13 13 13 13 13 12 12 12 12 12 12 12 12 12 12 12 11 11 11 11 11 10 10 10 10 10 10 10 10 10 9 9 9 9 9 9 9 9
14 14 14 13 13 13 13 13 12 12 12 12 12 12 12 12 12 12 12 12 11 11 11 11 11 10 10 10 10 10 10 10 10 9 9 9 9 9 9 9 9 9 9
13 13 13 13 13 13 13 12 12 12 12 12 12 12 12 12 12 12 11 11 11 11 11 11 11 11 10 10 10 10 10 9 9 9 9 9 9 9 9 9 9 8 8
13 13 13 13 13 13 12 12 12 12 12 12 12 12 12 12 11 11 11 11 11 11 11 11 11 10 10 10 10 10 9 9 9 9 9 9 9 8 8 8 8 8 8
13 13 13 13 12 12 12 12 12 12 12 12 12 11 11 11 11 11 11 11 11 11 11 10 10 10 10 10 10 9 9 9 9 9 8 8 8 8 8 8 8 8 8
12 12 12 12 12 12 12 12 12 11 11 11 11 11 11 11 11 11 11 11 11 10 10 10 10 10 9 9 9 9 9 9 9 8 8 8 8 8 8 8 8 7 7
12 12 12 12 12 12 12 11 11 11 11 11 11 11 11 11 10 10 10 10 10 10 10 10 10 9 9 9 9 9 9 9 8 8 8 8 8 7 7 7 7 7 7
Wind_Speed
3 4 5 6 6 7 8 7 8 8 8 9 9 9 9 9 10 10 10 13 13 12 12 12 12 11 11 11 11 11 10 10 10 10 10 10 11 11 11 11 11 10 10
4 4 4 5 6 7 8 8 7 7 6 7 7 8 8 9 9 10 10 11 13 13 13 12 12 12 11 11 11 11 11 11 11 11 11 11 11 11 11 11 11 11 10
6 5 4 4 5 7 8 8 8 7 6 6 6 7 8 9 9 10 11 11 11 13 14 13 12 12 11 11 11 11 11 11 11 11 11 11 11 11 11 11 11 11 11
7 6 4 4 5 7 7 5 4 5 5 5 5 5 6 8 9 10 10 11 11 11 12 13 12 11 11 10 10 10 10 10 10 11 11 11 11 11 11 12 12 12 13
7 7 5 4 6 6 5 4 4 4 5 5 5 5 5 6 7 9 9 11 11 11 11 11 11 12 11 9 8 9 9 10 10 10 10 11 11 11 12 12 12 13 13
6 7 5 5 6 4 4 4 5 4 3 4 5 6 5 5 6 7 7 9 10 11 11 11 10 10 11 10 9 9 9 9 9 10 11 11 11 12 12 12 12 13 14
5 6 5 4 4 4 4 4 4 5 3 3 4 4 5 5 6 5 6 7 8 10 11 11 10 9 9 10 10 9 9 9 9 10 11 11 11 12 12 12 12 12 13
4 5 5 4 4 4 4 4 4 3 2 2 2 2 2 3 4 5 4 5 6 8 9 10 11 10 10 9 10 10 10 10 10 11 11 11 11 11 11 10 11 11 12
3 4 5 5 4 4 4 4 4 4 2 0 1 3 2 1 1 3 4 4 5 5 6 7 9 10 10 9 8 9 10 10 10 11 11 10 10 11 11 11 11 11 11
2 4 5 5 4 3 4 3 3 2 3 2 1 2 2 3 2 1 2 3 4 4 4 5 6 8 9 8 8 9 10 10 10 10 10 10 10 10 10 10 10 10 10
1 3 4 4 4 3 3 3 3 2 2 3 2 1 2 2 2 2 0 2 3 3 3 4 5 6 7 7 8 9 11 11 10 9 10 10 9 9 9 9 9 9 8
0 1 3 3 3 3 3 3 3 2 2 2 2 2 2 2 2 2 2 1 1 2 2 3 4 4 5 6 6 8 9 10 10 9 9 9 9 8 8 8 8 8 8
1 2 2 3 2 3 3 3 3 2 2 2 2 2 2 2 2 3 3 2 1 1 2 2 3 3 4 5 5 7 7 8 8 8 8 8 8 8 8 7 7 7 7
3 3 3 3 3 3 3 3 2 2 2 2 2 2 2 2 3 3 4 4 2 1 2 2 2 2 3 3 3 5 5 6 6 6 7 7 7 6 6 6 6 6 6
2 3 3 3 2 3 3 3 2 2 2 2 2 2 2 1 2 2 3 4 4 2 1 2 1 2 2 2 2 3 3 4 5 5 5 5 5 5 5 5 5 5 5
3 4 4 3 3 3 3 3 2 2 2 1 1 2 2 1 2 2 3 2 2 3 2 2 2 1 0 1 2 2 2 3 4 4 4 4 5 5 5 5 5 5 5
4 5 5 4 4 3 3 3 3 3 3 2 2 2 2 2 2 2 2 2 2 2 2 1 1 0 0 1 2 3 2 2 2 3 3 4 4 5 5 4 5 5 5
4 5 5 4 4 4 3 4 4 3 4 3 3 3 2 2 2 2 2 2 2 2 3 2 0 0 0 1 1 1 2 1 1 2 2 2 3 3 3 4 4 4 4
4 4 5 5 5 4 4 4 4 4 4 4 4 4 4 4 3 2 3 3 2 2 2 3 1 0 0 0 1 1 1 2 1 1 1 1 1 2 2 2 2 2 2
4 4 5 5 5 5 5 4 4 4 4 3 4 4 4 5 5 5 4 4 4 3 3 3 2 1 0 0 1 1 1 1 1 2 2 1 1 1 1 1 1 1 1
3 3 4 4 4 4 4 5 4 4 4 3 3 3 4 5 6 5 4 5 6 4 4 3 2 1 1 1 2 1 1 0 1 1 1 1 1 1 2 1 1 1 1
2 2 3 4 4 4 6 7 6 4 4 4 3 3 3 4 5 6 6 8 8 6 6 4 3 4 4 4 2 2 2 1 1 1 1 1 0 1 2 2 2 1 2
2 3 3 4 4 5 6 7 8 5 4 4 4 3 3 3 3 3 4 6 6 7 8 6 6 6 5 6 5 3 3 3 2 2 1 1 1 1 3 3 3 3 3
2 3 3 4 4 5 6 7 8 4 4 3 4 4 4 3 3 4 4 3 3 4 5 5 6 6 6 6 6 5 4 2 0 1 2 1 1 2 3 3 3 3 3
2 2 3 4 4 4 6 7 7 4 3 3 3 3 4 4 5 5 5 4 2 2 4 6 6 6 6 6 7 4 3 3 1 2 2 2 1 1 2 3 3 3 2
3 2 2 3 4 4 5 7 8 4 4 3 2 3 5 5 6 6 6 6 5 4 3 2 2 3 3 5 7 6 5 4 2 2 2 3 1 1 1 2 2 3 3
Wind_Direction
79 73 71 71 73 79 81 79 76 73 68 62 62 61 55 52 49 45 41 47 49 55 61 64 69 73 75 77 79 78 76 75 76 77 77 76 75 75 73 69 70 74 74
100 89 78 75 74 82 86 84 81 78 71 68 60 57 55 54 51 48 43 39 43 49 56 61 65 68 72 76 78 76 76 75 74 75 77 78 76 76 74 71 69 71 70
107 101 91 82 84 92 92 89 81 78 72 66 56 54 55 52 50 48 45 41 39 42 48 54 60 64 68 73 76 75 75 75 75 75 78 78 77 76 76 75 74 71 68
109 105 97 90 97 98 94 90 81 77 69 64 57 49 49 49 48 51 49 44 40 37 39 46 52 57 62 69 72 75 77 77 74 74 77 79 79 78 76 76 74 71 66
114 112 106 104 105 98 88 93 78 86 85 75 67 54 45 46 43 50 48 44 42 41 38 38 44 48 52 58 68 74 77 79 79 79 81 81 82 84 82 78 75 72 69
117 114 109 109 110 97 85 87 90 75 86 84 77 61 46 43 47 44 42 44 43 41 39 38 38 39 43 47 57 70 75 79 80 82 82 84 83 82 83 78 76 73 71
122 121 117 115 115 111 114 110 101 91 79 85 80 59 42 43 48 39 38 41 40 38 40 39 37 39 40 42 47 60 67 75 78 81 80 83 85 82 81 79 76 73 71
126 132 130 133 128 118 114 115 109 104 102 82 99 92 47 18 23 31 32 40 34 34 38 38 40 43 48 48 50 58 60 71 75 82 83 81 84 83 81 81 80 74 71
126 135 140 138 141 142 148 149 140 130 143 85 79 127 132 185 353 8 25 30 27 28 28 34 37 41 44 46 49 56 60 66 72 78 83 82 81 81 78 76 77 74 71
118 134 141 141 147 149 155 168 155 143 140 146 74 61 113 143 144 42 359 11 21 25 20 27 30 35 38 41 49 56 62 65 68 73 78 80 81 80 79 77 75 73 70
85 127 144 144 149 155 164 164 153 153 151 155 151 128 91 71 103 138 166 343 2 1 8 19 26 31 32 39 50 59 63 64 63 68 73 76 76 77 79 78 74 72 69
34 130 144 148 155 159 170 171 165 166 162 151 154 154 155 153 165 146 158 211 318 329 350 14 21 20 32 38 51 59 62 62 63 66 69 70 70 70 75 76 71 66 64
216 208 161 159 162 167 167 160 160 170 170 166 174 180 170 170 156 145 141 158 163 326 345 356 0 11 31 41 48 58 62 61 64 69 67 67 68 68 65 66 66 63 58
207 194 171 170 169 162 159 151 152 172 160 162 174 167 164 173 162 158 154 148 128 16 4 318 338 0 21 41 44 62 63 64 66 70 70 67 68 68 61 55 56 57 57
196 179 173 170 169 161 155 142 141 155 150 162 163 158 158 173 161 157 150 155 150 157 238 264 295 328 6 44 48 65 62 68 66 70 73 67 67 66 63 56 53 53 52
192 176 177 172 165 156 150 142 141 152 144 155 156 143 147 157 144 140 146 140 143 155 181 230 237 273 353 57 55 67 59 58 59 69 75 73 68 64 64 63 57 54 54
189 191 188 179 175 174 166 160 168 159 156 154 151 149 156 153 145 140 131 129 130 134 154 254 253 287 103 64 55 63 57 57 50 64 76 76 72 67 66 68 63 59 57
196 195 184 180 182 183 177 179 186 178 175 176 177 162 174 163 153 154 150 149 153 149 154 173 228 351 179 163 100 73 56 55 38 41 74 76 71 73 65 68 65 62 58
194 190 183 186 188 187 186 192 190 188 189 191 188 185 188 171 177 172 163 155 152 139 129 148 162 30 97 97 78 56 47 29 33 28 63 57 58 76 72 64 56 55 54
191 193 193 193 188 185 189 190 182 182 187 196 199 195 194 190 189 176 171 165 150 132 126 135 148 149 166 73 108 115 4 3 354 16 28 40 42 48 40 29 15 14 15
193 191 183 186 180 181 192 182 180 183 183 190 200 204 205 202 199 187 179 171 159 151 149 153 169 168 197 182 197 188 198 310 332 356 19 7 11 8 340 315 293 305 318
173 177 184 181 185 198 192 187 176 178 180 186 200 212 220 214 207 204 195 183 175 170 174 173 187 195 213 211 192 182 168 141 276 268 134 306 10 293 297 285 274 291 306
178 189 198 191 199 208 201 195 187 172 179 192 201 204 220 219 201 188 195 189 196 198 190 181 186 203 204 203 187 189 194 193 221 217 148 256 292 278 285 277 280 282 291
182 198 206 203 203 212 202 195 185 170 177 192 202 202 201 211 199 177 167 177 201 218 207 194 196 208 209 197 190 194 185 167 327 276 166 221 262 269 294 299 291 281 280
190 206 199 194 201 219 208 195 173 159 177 202 210 207 202 207 213 185 167 178 206 244 219 204 210 214 211 200 179 146 147 149 229 260 206 190 241 278 292 290 301 300 290
196 192 200 199 201 214 213 200 180 168 183 204 215 218 215 211 213 198 183 182 204 226 195 185 198 212 208 199 191 188 183 179 189 235 211 182 202 190 293 281 298 312 309
Height
1548 1548 1548 1548 1548 1548 1549 1549 1549 1549 1549 1549 1549 1549 1548 1548 1548 1548 1547 1547 1546 1546 1546 1545 1545 1545 1545 1545 1544 1544 1544 1544 1544 1544 1543 1543 1543 1543 1543 1543 1543 1544 1544
1549 1549 1549 1549 1549 1550 1550 1550 1550 1550 1550 1550 1550 1550 1550 1550 1549 1549 1549 1548 1548 1548 1547 1547 1546 1546 1546 1546 1546 1545 1545 1545 1545 1545 1544 1544 1544 1544 1544 1544 1544 1544 1544
1550 1550 1550 1550 1551 1551 1551 1551 1551 1551 1551 1551 1551 1551 1551 1551 1551 1550 1550 1550 1549 1549 1549 1548 1548 1548 1547 1547 1547 1546 1546 1546 1546 1545 1545 1545 1545 1545 1545 1545 1545 1545 1544
1551 1552 1552 1552 1552 1552 1552 1552 1552 1552 1552 1552 1552 1552 1552 1552 1552 1552 1551 1551 1550 1550 1550 1550 1549 1549 1548 1548 1548 1547 1547 1547 1547 1546 1546 1546 1546 1546 1546 1546 1546 1545 1545
1552 1553 1553 1553 1553 1553 1553 1553 1553 1553 1553 1553 1553 1553 1553 1553 1553 1553 1552 1552 1552 1551 1551 1551 1550 1550 1549 1549 1548 1548 1548 1548 1547 1547 1547 1547 1547 1547 1547 1547 1547 1546 1546
1553 1553 1553 1553 1553 1553 1554 1554 1554 1554 1554 1554 1554 1554 1554 1554 1554 1554 1554 1553 1553 1552 1552 1551 1551 1550 1550 1549 1549 1549 1549 1549 1548 1548 1548 1548 1548 1548 1548 1548 1548 1548 1547
1553 1554 1554 1554 1554 1554 1554 1554 1555 1555 1555 1555 1555 1555 1555 1555 1555 1555 1555 1554 1554 1553 1553 1552 1551 1550 1550 1550 1550 1550 1549 1549 1549 1549 1549 1549 1549 1549 1549 1549 1549 1549 1549
1554 1554 1554 1554 1554 1554 1554 1555 1555 1555 1555 1555 1556 1555 1556 1557 1556 1556 1556 1555 1555 1554 1553 1552 1551 1551 1550 1550 1550 1550 1550 1550 1550 1549 1549 1549 1549 1550 1550 1550 1550 1550 1550
1553 1554 1554 1554 1554 1555 1555 1555 1555 1555 1555 1556 1556 1556 1556 1556 1557 1557 1556 1556 1556 1555 1554 1553 1552 1551 1551 1551 1551 1551 1551 1551 1550 1550 1550 1550 1550 1550 1550 1550 1550 1550 1550
1553 1553 1554 1554 1554 1554 1555 1555 1555 1555 1555 1555 1556 1556 1557 1556 1556 1556 1557 1556 1556 1555 1555 1554 1553 1552 1552 1551 1551 1551 1551 1551 1551 1551 1551 1551 1551 1551 1551 1551 1551 1551 1551
1553 1553 1553 1554 1554 1554 1554 1554 1555 1555 1555 1555 1555 1555 1555 1556 1556 1556 1556 1556 1556 1556 1555 1555 1554 1553 1553 1552 1552 1552 1552 1552 1552 1552 1552 1551 1552 1552 1552 1552 1552 1552 1552
1552 1552 1552 1553 1553 1553 1554 1554 1554 1554 1554 1555 1555 1555 1555 1555 1555 1555 1555 1555 1555 1556 1555 1555 1554 1554 1553 1553 1552 1552 1552 1552 1552 1552 1552 1552 1552 1553 1553 1553 1553 1553 1552
1551 1551 1552 1552 1552 1553 1553 1553 1553 1553 1554 1553 1553 1554 1554 1554 1554 1555 1555 1554 1555 1555 1555 1555 1555 1554 1554 1554 1553 1553 1553 1553 1553 1553 1553 1553 1553 1553 1553 1553 1553 1553 1552
1550 1550 1551 1551 1552 1552 1552 1552 1552 1552 1552 1552 1552 1553 1553 1553 1553 1554 1554 1554 1554 1554 1554 1555 1555 1555 1555 1554 1554 1554 1554 1553 1553 1553 1553 1553 1553 1553 1553 1553 1553 1553 1552
1549 1549 1549 1550 1550 1550 1550 1551 1551 1551 1551 1551 1551 1551 1551 1552 1552 1552 1553 1553 1554 1553 1553 1554 1554 1554 1554 1554 1554 1554 1554 1554 1553 1553 1553 1553 1553 1553 1553 1553 1552 1552 1552
1547 1547 1548 1548 1549 1549 1549 1549 1550 1550 1550 1550 1550 1550 1550 1550 1551 1551 1552 1552 1552 1553 1552 1552 1553 1554 1554 1554 1554 1554 1554 1553 1553 1553 1553 1553 1553 1553 1553 1552 1552 1552 1551
1545 1545 1546 1546 1547 1547 1547 1547 1548 1548 1548 1549 1549 1549 1549 1549 1550 1550 1550 1551 1551 1551 1551 1551 1552 1552 1553 1553 1553 1553 1553 1553 1553 1553 1553 1552 1552 1552 1552 1552 1551 1551 1550
1542 1543 1544 1544 1545 1545 1545 1546 1546 1547 1547 1547 1548 1548 1548 1548 1548 1548 1549 1549 1549 1550 1550 1550 1550 1551 1551 1552 1552 1552 1552 1552 1552 1552 1552 1552 1551 1551 1551 1550 1550 1550 1549
1540 1541 1541 1542 1542 1543 1543 1544 1544 1545 1545 1546 1546 1546 1546 1547 1547 1547 1547 1548 1548 1548 1549 1549 1549 1550 1550 1550 1550 1551 1551 1551 1551 1551 1550 1550 1550 1550 1549 1549 1549 1548 1547
1537 1538 1538 1539 1540 1540 1541 1542 1542 1543 1543 1544 1544 1544 1545 1545 1545 1546 1546 1546 1546 1546 1547 1547 1548 1548 1548 1549 1549 1549 1549 1549 1549 1549 1549 1549 1549 1548 1548 1547 1547 1546 1546
1533 1534 1535 1536 1537 1538 1538 1539 1540 1541 1541 1542 1542 1542 1543 1543 1543 1544 1544 1544 1545 1545 1545 1545 1546 1546 1546 1547 1547 1547 1547 1547 1547 1547 1547 1547 1547 1546 1546 1546 1545 1544 1544
1530 1531 1532 1533 1534 1535 1535 1536 1537 1538 1538 1539 1539 1540 1540 1541 1541 1542 1542 1542 1543 1543 1543 1543 1543 1544 1544 1545 1545 1545 1545 1545 1545 1546 1545 1545 1545 1544 1544 1543 1543 1542 1542
1527 1528 1529 1530 1530 1531 1532 1533 1534 1535 1536 1536 1537 1537 1537 1538 1538 1539 1540 1540 1540 1541 1542 1542 1541 1541 1542 1542 1543 1542 1542 1542 1542 1543 1543 1542 1542 1541 1541 1541 1540 1540 1539
1523 1524 1525 1526 1527 1528 1529 1530 1531 1532 1532 1533 1534 1534 1534 1535 1536 1536 1537 1537 1537 1538 1539 1539 1539 1539 1540 1540 1540 1541 1540 1540 1540 1540 1540 1539 1539 1539 1538 1538 1537 1537 1536
1520 1520 1522 1523 1524 1525 1526 1527 1528 1528 1529 1530 1530 1531 1531 1532 1532 1533 1534 1534 1534 1535 1536 1536 1536 1537 1537 1537 1537 1537 1537 1537 1536 1537 1537 1537 1536 1536 1535 1535 1534 1534 1533
1517 1517 1518 1520 1521 1522 1523 1524 1524 1525 1525 1526 1526 1527 1528 1528 1529 1530 1530 1531 1531 1532 1532 1533 1533 1533 1533 1534 1534 1534 1534 1534 1533 1533 1533 1534 1533 1533 1532 1531 1531 1531 1530